Weather History for KBTR - April, 2014

Change the Weather History Date:

Sunday, April 6, 2014

  Actual Average Record
Temperature  
Mean Temperature 66 °F 66 °F  
Max Temperature 75 °F 77 °F 87 °F (1986)
Min Temperature 56 °F 54 °F 39 °F (1971)
Degree Days  
Heating Degree Days 0 3  
Month to date heating degree days 2 18  
Since 1 July heating degree days 1929 1520  
Cooling Degree Days 1 3  
Month to date cooling degree days 35 18  
Year to date cooling degree days 81 107  
Growing Degree Days 14 (Base 50)    
Moisture  
Dew Point 61 °F    
Average Humidity 86    
Maximum Humidity 93    
Minimum Humidity 78    
Precipitation  
Precipitation 2.13 in 0.15 in 4.19 in (1983)
Month to date precipitation 2.32 0.92  
Year to date precipitation 14.81 16.09  
Snow  
Snow 0.00 in - - ()
Month to date snowfall 0.0  
Since 1 July snowfall 0.4  
Snow Depth 0.00 in    
Sea Level Pressure  
Sea Level Pressure 29.78 in    
Wind  
Wind Speed 11 mph (East)    
Max Wind Speed 31 mph    
Max Gust Speed 39 mph    
Visibility 6 miles    
Events Rain , Thunderstorm    
T = Trace of Precipitation, MM = Missing Value Source: NWS Daily Summary

Daily Weather History Graph

Daily Weather History Graph

Search for Another Location

Airport or City:

Trip Planner

Search our weather history database for the weather conditions in past years. The results will help you decide how hot, cold, wet, or windy it might be!

Date:

Astronomy

Apr. 06, 2014 Rise Set
Actual Time 6:47 AM CDT 7:26 PM CDT
Civil Twilight 6:23 AM CDT 7:51 PM CDT
Nautical Twilight 5:54 AM CDT 8:19 PM CDT
Astronomical Twilight 5:25 AM CDT 8:48 PM CDT
Moon 12:01 PM CDT 1:09 AM CDT
Length of Visible Light 13h 27m
Length of Day
12h 39m
Waxing Crescent, 44% of the Moon is Illuminated
Apr 6
Waxing Crescent
Apr 7
First Quarter
Apr 15
Full
Apr 22
Last Quarter
Apr 29
New

Hourly Weather History & Observations

Time (CDT) Temp. Dew Point Humidity Pressure Visibility Wind Dir Wind Speed Gust Speed Precip Events Conditions
12:53 AM 60.1 °F 53.1 °F 78% 29.94 in 10.0 mi ENE 6.9 mph - N/A   Overcast
1:30 AM 59.0 °F 54.0 °F 83% 29.93 in 5.0 mi ENE 3.5 mph - 0.02 in Rain Rain
1:36 AM 57.9 °F 54.0 °F 87% 29.93 in 1.8 mi ENE 9.2 mph - 0.11 in Rain Heavy Rain
1:50 AM 57.2 °F 55.4 °F 94% 29.91 in 2.0 mi East 5.8 mph - 0.45 in Rain Light Rain
1:53 AM 57.0 °F 55.0 °F 93% 29.91 in 3.0 mi East 5.8 mph - 0.46 in Rain Light Rain
2:05 AM 57.9 °F 55.0 °F 90% 29.90 in 8.0 mi East 5.8 mph - 0.01 in Rain Light Rain
2:17 AM 57.9 °F 55.0 °F 90% 29.89 in 10.0 mi ENE 5.8 mph - 0.01 in   Overcast
2:53 AM 57.9 °F 55.0 °F 90% 29.90 in 10.0 mi NE 4.6 mph - 0.01 in   Overcast
3:53 AM 57.9 °F 55.9 °F 93% 29.90 in 6.0 mi NNE 3.5 mph - 0.00 in   Overcast
4:05 AM 57.9 °F 55.9 °F 93% 29.91 in 5.0 mi NNE 5.8 mph - N/A   Overcast
4:53 AM 57.9 °F 55.9 °F 93% 29.91 in 2.5 mi North 3.5 mph - 0.00 in   Overcast
5:20 AM 57.9 °F 55.9 °F 93% 29.91 in 3.0 mi NNE 6.9 mph - 0.00 in   Overcast
5:53 AM 57.9 °F 55.0 °F 90% 29.92 in 4.0 mi NNE 8.1 mph - 0.00 in Rain Light Rain
6:25 AM 57.9 °F 55.0 °F 90% 29.92 in 8.0 mi NE 10.4 mph - 0.01 in   Overcast
6:53 AM 57.0 °F 54.0 °F 89% 29.92 in 10.0 mi NE 10.4 mph - 0.01 in Rain Light Rain
7:53 AM 55.9 °F 53.1 °F 90% 29.91 in 10.0 mi ENE 16.1 mph - 0.00 in   Overcast
8:53 AM 57.0 °F 53.1 °F 87% 29.88 in 10.0 mi East 13.8 mph - N/A   Overcast
9:53 AM 57.9 °F 55.0 °F 90% 29.88 in 10.0 mi East 10.4 mph - N/A   Overcast
10:53 AM 60.1 °F 55.9 °F 86% 29.88 in 10.0 mi NE 6.9 mph - N/A   Overcast
11:53 AM 61.0 °F 57.0 °F 87% 29.85 in 10.0 mi ENE 9.2 mph - N/A   Overcast
12:53 PM 63.0 °F 59.0 °F 87% 29.84 in 10.0 mi ENE 8.1 mph - N/A   Overcast
1:53 PM 64.0 °F 60.1 °F 87% 29.79 in 10.0 mi East 13.8 mph - N/A   Overcast
2:53 PM 64.9 °F 61.0 °F 87% 29.74 in 5.0 mi East 11.5 mph - N/A   Overcast
3:53 PM 66.0 °F 62.1 °F 87% 29.71 in 6.0 mi East 9.2 mph - 0.00 in   Overcast
4:50 PM 66.2 °F 62.6 °F 88% 29.69 in 1.5 mi East 10.4 mph - 0.01 in Rain Light Rain
4:53 PM 66.0 °F 63.0 °F 90% 29.69 in 1.5 mi East 9.2 mph - 0.01 in Rain Light Rain
5:53 PM 66.0 °F 64.0 °F 93% 29.68 in 1.5 mi ESE 6.9 mph - 0.02 in Rain Light Rain
6:00 PM 66.9 °F 64.0 °F 90% 29.68 in 4.0 mi ESE 6.9 mph - 0.00 in Rain Light Rain
6:07 PM 66.9 °F 64.0 °F 90% 29.69 in 1.5 mi Variable 5.8 mph - 0.00 in Rain Light Rain
6:18 PM 66.9 °F 64.0 °F 90% 29.68 in 1.5 mi ESE 4.6 mph - 0.00 in Rain Light Rain
6:36 PM 68.0 °F 64.9 °F 90% 29.68 in 1.5 mi ESE 8.1 mph - 0.00 in   Overcast
6:53 PM 68.0 °F 64.9 °F 90% 29.68 in 1.5 mi SE 6.9 mph - 0.00 in Rain Light Rain
7:00 PM 68.0 °F 64.9 °F 90% 29.68 in 2.0 mi ESE 5.8 mph - 0.00 in Rain Light Rain
7:53 PM 70.0 °F 66.9 °F 90% 29.65 in 2.0 mi SSE 10.4 mph - 0.00 in   Overcast
8:00 PM 71.1 °F 68.0 °F 90% 29.66 in 4.0 mi South 11.5 mph - N/A   Overcast
8:41 PM 73.0 °F 70.0 °F 90% 29.67 in 8.0 mi South 11.5 mph - N/A   Overcast
8:53 PM 73.0 °F 70.0 °F 90% 29.66 in 8.0 mi South 17.3 mph 21.9 mph N/A   Overcast
9:53 PM 73.9 °F 70.0 °F 87% 29.65 in 9.0 mi South 15.0 mph - N/A   Overcast
10:53 PM 73.9 °F 70.0 °F 87% 29.64 in 6.0 mi South 15.0 mph 23.0 mph 0.03 in Rain , Thunderstorm Light Thunderstorms and Rain
11:03 PM 73.9 °F 70.0 °F 87% 29.65 in 7.0 mi South 15.0 mph - 0.02 in Rain Light Rain
11:10 PM 73.9 °F 71.1 °F 91% 29.63 in 2.0 mi South 15.0 mph - 0.06 in Rain , Thunderstorm Thunderstorms and Rain
11:35 PM 70.0 °F 66.9 °F 90% 29.64 in 1.0 mi South 16.1 mph 39.1 mph 0.48 in Rain Heavy Rain
11:43 PM 71.1 °F 66.9 °F 87% 29.64 in 3.0 mi South 13.8 mph - 0.55 in Rain Rain
11:53 PM 71.1 °F 68.0 °F 90% 29.65 in 7.0 mi SSW 11.5 mph - 0.58 in Rain Rain